Location: Buchberger Waldh�tten
(48.5500°N, 15.6333°E)
Time: 03:55:49
(UTC+00:00)

Daily predictions for brighter satellites

Satellite Brightness Start Highest point End
(mag) Time Altitude Azimuth Time Altitude Azimuth Time Altitude Azimuth
ATLAS 2AS CENTAUR R/B 4.1 00:35:05 36° NE 00:35:05 36° NE 00:39:16 10° NE
CZ-4C R/B 4.4 01:12:57 22° N 01:13:03 22° N 01:18:18 10° NE
Lacrosse 5 4.1 01:28:12 21° NE 01:28:12 21° NE 01:30:14 10° NE
USA 234 4.0 01:55:51 10° ENE 02:01:57 41° SE 02:02:46 39° SSE
ARIANE 5 R/B 3.4 02:01:14 10° NNE 02:05:22 45° ENE 02:05:22 45° ENE
SL-4 R/B 4.1 02:09:46 28° ENE 02:09:46 28° ENE 02:11:49 10° ENE
ATLAS 5 CENTAUR R/B 3.5 02:12:25 34° SSE 02:12:25 34° SSE 02:16:05 10° SE
Cosmos 2369 4.3 02:10:55 26° NNW 02:14:04 55° ENE 02:19:42 10° SE
Cosmos 1833 Rocket 3.1 02:15:19 57° ESE 02:15:23 57° ESE 02:20:53 10° NE
ADEOS II 4.0 02:16:15 10° N 02:18:02 20° NNW 02:18:02 20° NNW
IDEFIX/ARIANE 42P 4.0 02:16:50 10° N 02:19:24 28° N 02:19:24 28° N
CZ-4B R/B 4.4 02:17:56 10° NNE 02:23:04 47° E 02:24:47 35° SSE
ATLAS 2AS CENTAUR R/B 3.5 02:22:31 42° NW 02:23:10 43° NNW 02:30:19 10° NE
Meteor 1-13 Rocket 4.4 02:24:23 60° SE 02:25:06 67° E 02:30:43 10° NNE
Cosmos 2360 4.2 02:27:53 77° SE 02:27:53 77° SE 02:33:12 10° SSE
ALOS 3.5 02:23:47 10° NNE 02:28:10 38° E 02:30:05 26° SE
Cosmos 2184 Rocket 3.8 02:22:47 10° N 02:29:00 89° E 02:32:13 31° S
Cosmos 540 Rocket 4.2 02:30:53 43° N 02:30:53 43° N 02:34:30 10° NNE
IRS-1C 4.2 02:24:29 10° NNE 02:29:17 72° N 02:29:17 72° N
Cosmos 1980 Rocket 2.8 02:24:19 10° NNW 02:29:58 56° ENE 02:35:34 10° SE
CZ-2C R/B 3.0 02:25:21 10° NNE 02:30:14 54° E 02:31:00 49° SE
MSX 4.3 02:27:24 10° N 02:31:55 48° NNW 02:31:55 48° NNW
Cosmos 2298 Rocket 4.4 02:34:30 10° NNW 02:39:46 61° ENE 02:45:01 10° SE
FENGYUN 3A 4.0 02:41:40 10° NNE 02:47:05 65° ESE 02:50:33 22° S
Cosmos 1697 Rocket 3.2 02:50:39 43° S 02:50:39 43° S 02:54:30 10° SSE
Cosmos 1814 Rocket 3.9 02:50:37 73° WSW 02:51:06 80° WNW 02:56:30 10° NNE
Cosmos 2154 Rocket 3.9 02:46:19 10° N 02:52:35 87° W 02:58:47 10° S
Sich 1 Rocket 4.1 02:49:46 10° N 02:54:08 57° ENE 02:58:28 10° SSE
ERS-1 4.4 02:49:48 10° N 02:54:59 68° WNW 02:55:15 67° W
FALCON 9 DEB 4.5 02:58:22 36° ESE 02:58:22 36° ESE 03:00:30 10° ESE
Cosmos 2278 4.0 02:52:27 10° NNW 02:58:11 68° ENE 03:03:53 10° SE
Cosmos 1300 Rocket 3.7 02:54:33 10° N 02:58:54 70° E 03:03:14 10° SSE
Cosmos 1295 Rocket 4.4 02:55:34 10° N 03:01:52 84° W 03:08:03 10° S
Cosmos 1125 Rocket 3.6 02:56:48 10° NNW 03:02:02 76° ENE 03:07:13 10° SSE
Cosmos 2074 Rocket 4.0 02:56:17 10° NNW 03:02:21 52° W 03:04:29 37° SW
COSMOS 2406 3.1 03:01:40 47° SW 03:03:23 80° WNW 03:09:13 10° NNE
CZ-4C R/B 4.3 02:58:08 11° NW 03:03:44 30° NNE 03:10:26 10° E
NOSS 3-1 (C) 4.0 02:59:31 15° NW 03:05:58 85° SW 03:14:41 10° SE
Lacrosse 5 3.1 03:07:24 24° NNW 03:09:36 35° NNE 03:14:17 10° E
IRS-P3 4.4 03:05:29 10° N 03:10:31 44° WNW 03:10:40 44° WNW
Meteor 2-10 3.9 03:05:50 10° N 03:10:54 83° ENE 03:15:59 10° SSE
Cosmos 2208 Rocket 3.9 03:10:35 45° SW 03:12:10 73° WNW 03:17:26 10° NNE
Cosmos 1066 Rocket 4.1 03:13:16 45° WSW 03:14:29 55° WNW 03:19:46 10° N
SL-16 R/B 3.5 03:10:17 10° NNW 03:15:38 40° NE 03:20:57 10° ESE
Cosmos 1461 3.4 03:14:58 31° S 03:16:50 59° ESE 03:21:00 10° NE
CZ-2D R/B 4.1 03:13:40 10° N 03:16:43 38° NW 03:16:43 38° NW
PSLV R/B 4.0 03:13:31 10° NNE 03:17:53 65° ESE 03:22:14 10° S
NOSS 2-1 (E) 3.9 03:20:09 34° NNW 03:20:09 34° NNW 03:22:48 10° NNE
Cosmos 921 Rocket 3.0 03:19:50 55° W 03:20:19 59° WNW 03:24:36 10° NNE
Cosmos 1340 3.7 03:16:54 10° S 03:20:29 45° E 03:24:07 10° NNE
Meteor 1-15 Rocket 4.3 03:15:13 10° NNW 03:21:01 58° W 03:26:48 10° S
Okean 3 4.0 03:28:07 37° NW 03:28:07 37° NW 03:31:35 10° N
Spot 4 Rocket 4.1 03:24:39 10° N 03:29:41 57° WNW 03:32:47 23° SW
IRIDIUM 104 4.5 03:27:50 24° SW 03:30:43 48° W 03:35:47 10° N
Cosmos 2082 Rocket 2.1 03:27:07 19° SSW 03:31:19 81° WNW 03:37:05 10° NNE
Cosmos 1842 3.1 03:28:28 11° S 03:32:15 88° W 03:36:13 10° N
SME Rocket 4.1 03:26:01 10° S 03:32:57 49° WSW 03:37:43 10° NNW
Cosmos 841 Rocket 4.5 03:32:42 27° WNW 03:33:08 27° NW 03:37:38 10° N
Cosmos 2322 Rocket 3.4 03:28:46 10° NNW 03:34:07 41° NE 03:39:28 10° ESE
Cosmos 962 Rocket 4.4 03:28:50 10° NNW 03:35:02 74° W 03:41:17 10° S
PAYLOAD A 4.4 03:31:23 10° N 03:36:01 41° WNW 03:37:54 29° WSW
ATLAS CENTAUR R/B 1.8 03:36:07 17° SSW 03:39:04 60° SE 03:43:18 10° NE
Cosmos 2150 Rocket 4.1 03:34:47 10° NNW 03:39:51 48° WSW 03:44:48 10° S
Cosmos 389 Rocket 3.7 03:39:37 10° N 03:42:59 42° ENE 03:46:20 10° SSE
ARIANE 5 R/B 3.4 03:40:50 10° N 03:44:57 26° WNW 03:45:41 25° WNW
USA 234 3.2 03:38:46 10° NE 03:45:18 77° NNW 03:50:07 20° WSW
Okean 2 Rocket 3.1 03:41:37 10° NNW 03:46:05 59° W 03:50:30 10° S
Cosmos 2221 Rocket 3.4 03:41:45 10° SSW 03:46:10 72° WNW 03:50:35 10° N
SL-4 R/B 2.4 03:45:18 29° WNW 03:47:20 56° N 03:51:24 10° ENE
Cosmos 1707 3.2 03:43:42 10° S 03:47:32 63° E 03:51:26 10° NNE
GP-B 3.6 03:44:05 14° SSW 03:47:34 37° W 03:51:43 10° NNW
COSMO-SKYMED 1 3.2 03:43:27 10° SSE 03:47:42 58° ENE 03:51:59 10° N
Cosmos 2360 Rocket 3.7 03:44:37 10° NNW 03:49:51 35° NE 03:55:02 10° ESE
Cosmos 2218 Rocket 4.1 03:45:51 10° N 03:52:18 90° W 03:58:42 10° S
Okean 2 3.4 03:48:52 10° S 03:52:56 81° E 03:57:02 10° NNE
ATLAS 5 CENTAUR R/B 3.7 03:54:02 18° WSW 03:54:02 18° WSW 03:57:58 10° SSW
FALCON 9 DEB 4.0 03:54:47 26° SW 03:54:51 26° SW 03:57:25 10° SSE
Cosmos 405 3.3 03:54:33 10° NNW 03:57:48 40° W 04:01:02 10° SSW
SL-8 Rocket 3.9 03:53:12 10° NNW 03:59:26 69° W 04:05:34 10° S
Cosmos 1833 Rocket 3.6 03:57:03 21° W 03:59:39 30° NW 04:04:35 10° NNE
SJ-12 4.4 03:55:39 10° NNE 03:59:42 64° ESE 04:03:42 10° S
CZ-2C R/B 3.1 03:54:29 10° SSE 03:59:52 67° ENE 04:05:24 10° N
YAOGAN 6 3.2 03:56:55 10° NNE 04:00:22 56° E 04:03:49 10° S
CZ-4B R/B 4.4 03:56:59 10° N 04:01:31 30° WNW 04:04:42 16° WSW
Cosmos 1378 Rocket 3.5 03:57:40 10° S 04:02:03 90° ENE 04:06:31 10° N
CZ-2C R/B 3.5 03:58:47 10° N 04:02:04 29° WNW 04:03:37 21° WSW
Cosmos 1470 2.9 04:00:56 10° NNW 04:04:43 47° W 04:08:28 10° SSW
USA 229 DEB 3.9 03:57:51 10° NW 04:05:07 69° SW 04:12:50 10° SSE
USA 229 3.9 03:57:57 10° NW 04:05:14 69° SW 04:12:56 10° SSE
ALOS 3.1 04:01:27 10° N 04:05:27 29° WNW 04:08:34 15° WSW
Lacrosse 5 rocket 2.2 04:01:56 10° SSW 04:06:01 51° SE 04:10:20 10° ENE
Cosmos 1758 3.2 04:04:00 10° NNW 04:07:59 77° W 04:11:57 10° S
METEOR-M 4.4 04:02:57 10° N 04:08:02 45° WNW 04:13:05 10° SW
CZ-2C R/B 3.6 04:04:13 10° N 04:08:05 23° WNW 04:10:22 17° W
BREEZE-M DEB (TANK) 2.4 04:07:19 17° SW 04:08:56 51° SSE 04:12:51 10° ENE
Cosmos 1484 Rocket 3.4 04:06:13 10° N 04:09:36 33° WNW 04:13:02 10° SW
Cosmos 1726 2.9 04:07:15 10° NNW 04:10:29 29° W 04:13:43 10° SSW
Cosmos 1980 Rocket 3.1 04:08:54 10° NW 04:13:37 27° WSW 04:18:18 10° SSW
Cosmos 2341 Rocket 4.3 04:08:47 10° NNW 04:14:44 44° W 04:20:37 10° SSW
ATLAS 2AS CENTAUR R/B 4.3 04:09:57 10° WNW 04:16:10 26° N 04:22:07 10° NE
H-2A R/B 2.7 04:13:42 10° NNE 04:17:34 89° WNW 04:21:22 10° SSW
Cosmos 1953 3.0 04:15:13 10° N 04:19:14 58° ENE 04:23:12 10° SSE
Envisat 3.1 04:16:18 10° NNE 04:21:26 87° ESE 04:26:31 10° SSW
FALCON 9 DEB 4.5 04:22:35 15° WSW 04:23:55 19° SW 04:26:11 10° S
Cosmos 44 3.2 04:19:13 10° NW 04:24:13 73° SW 04:28:52 10° SSE
Cosmos 2151 Rocket 4.4 04:21:21 10° NNW 04:25:09 29° W 04:28:57 10° SSW
NOSS 2-2 (C) 4.4 04:20:18 10° NW 04:25:25 85° NE 04:32:39 10° SE
Okean 1 Rocket 3.2 04:22:46 10° NNW 04:27:05 54° W 04:31:24 10° S
NOSS 3-1 (A) 4.3 04:19:53 10° NW 04:27:11 53° WSW 04:35:37 10° SSE
CZ-4C R/B 3.0 04:26:04 10° S 04:29:36 64° WSW 04:33:11 10° NNW
GEOS 3 Rocket 3.6 04:26:37 10° NE 04:31:44 64° NW 04:36:47 10° SW
COSMOS 2455 2.9 04:26:17 10° SW 04:32:19 82° NW 04:38:24 10° NNE
ADEOS 3.8 04:29:20 10° NNE 04:34:35 79° ESE 04:39:48 10° SSW
Cosmos 332 Rocket 4.1 04:30:42 10° NNW 04:35:34 73° ENE 04:40:22 10° SSE
Cosmos 1674 Rocket 4.0 04:31:39 10° SW 04:35:41 37° WNW 04:39:45 10° N
SKYMED 2 3.8 04:31:34 10° S 04:35:46 47° W 04:39:59 10° NNW
BREEZE M DEB (TANK) 4.5 04:30:55 10° WNW 04:36:14 24° SW 04:38:55 10° S
Landsat 5 3.7 04:34:37 10° S 04:38:16 40° W 04:42:01 10° NNW
Cosmos 1346 Rocket 2.9 04:35:04 10° S 04:39:04 87° ESE 04:43:07 10° NNE
Cosmos 304 Rocket 4.0 04:34:33 10° NNW 04:39:24 78° ENE 04:44:13 10° SSE
CZ-4B R/B 4.1 04:36:25 10° NNE 04:40:53 55° E 04:45:15 10° S
Cosmos 1300 4.3 04:39:21 10° N 04:42:58 40° ENE 04:46:33 10° SSE
CZ-4B R/B 4.0 04:46:52 10° N 04:50:20 41° WNW 04:53:46 10° SW
Cosmos 220 Rocket 4.4 04:46:00 10° NNW 04:50:20 68° ENE 04:54:35 10° SSE
CZ-4C R/B 3.3 04:46:22 10° NW 04:53:25 73° NE 05:01:45 10° SE
